Location: Unspecified
(48.7971°N, 123.6320°W)
Time: 23:24:20
(UTC-07:00)

Okean 3 - Pass Details

Date: 29 June 2019
Orbit: 577 x 601 km, 82.5° (Epoch: 17 July)

Event Time Altitude Azimuth Distance (km) Brightness Sun altitude
Rises 03:21:44 0° 359° (N) 2,863 8.1 -12.9°
Reaches altitude 10° 03:24:16 10° 13° (NNE) 1,953 7.4 -12.6°
Maximum altitude 03:27:55 26° 70° (ENE) 1,196 5.6 -12.3°
Drops below altitude 10° 03:31:31 10° 128° (SE) 1,932 6.0 -12.0°
Sets 03:34:00 0° 141° (SE) 2,825 6.8 -11.8°
